Tracking 29777 objects as of 6-Oct-2024
HD Live streaming from Space Station
objects crossing your sky now

STARLINK-30265

Track STARLINK-30265 now!
10-day predictions
STARLINK-30265 is classified as:


NORAD ID: 57646
Int'l Code: 2023-122Q
Perigee: 565.3 km
Apogee: 567.2 km
Inclination: 43.0 °
Period: 95.8 minutes
Semi major axis: 6937 km
RCS: Unknown
Launch date: August 17, 2023
Source: United States (US)
Launch site: AIR FORCE EASTERN TEST RANGE (AFETR)
Your satellite tracking list
Your tracking list is empty




NASA's NSSDC Master Catalog

Two Line Element Set (TLE):
1 57646U 23122Q   24280.37762935  .00000844  00000-0  77561-4 0  9992
2 57646  43.0027  36.4445 0001409 280.4418  79.6266 15.02530960 64066
Source of the keplerian elements: AFSPC